Location: Unspecified
(0.0000°N, 0.0000°E)
Time: 13:52:06
(UTC+00:00)

S-56A Canister/Altair - All Passes

Search period start: 30 September 2014 00:00
Search period end: 10 October 2014 00:00
Orbit: 633 x 2503 km, 38.9° (Epoch: 29 September)

Date Brightness Start Highest point End Pass type
(mag) Time Alt. Az. Time Alt. Az. Time Alt. Az.
30 Sep - 01:42:44 10° W 01:47:38 16° NW 01:51:39 10° N night (unlit)
30 Sep - 10:10:41 10° NNW 10:16:15 32° NE 10:24:07 10° ESE daylight
30 Sep - 12:13:13 10° WNW 12:20:43 55° SW 12:32:07 10° SE daylight
30 Sep - 14:21:47 10° WSW 14:28:19 18° SSW 14:36:10 10° S daylight
30 Sep - 20:53:26 10° SSW 21:04:04 25° SSE 21:12:29 10° E visible
30 Sep - 22:58:40 10° SW 23:11:08 79° SE 23:19:13 10° NE visible
01 Oct - 01:08:33 10° W 01:15:23 22° NW 01:20:35 10° N night (unlit)
01 Oct - 09:39:16 10° N 09:44:05 24° NE 09:50:29 10° E daylight
01 Oct - 11:41:07 10° WNW 11:48:09 63° SW 11:59:02 10° SE daylight
01 Oct - 13:48:44 10° WSW 13:55:16 19° SSW 14:03:21 10° SSE daylight
01 Oct - 20:20:34 10° SSW 20:30:57 23° SSE 20:39:29 10° ESE visible
01 Oct - 22:25:27 10° SW 22:38:28 70° SE 22:47:07 10° ENE visible
02 Oct - 00:34:36 10° WSW 00:43:05 28° NW 00:49:14 10° N night (unlit)
02 Oct - 09:08:04 10° N 09:11:56 18° NE 09:16:42 10° E daylight
02 Oct - 11:09:05 10° NW 11:15:41 73° SW 11:25:57 10° SE daylight
02 Oct - 13:15:53 10° WSW 13:22:18 20° SSW 13:30:30 10° SSE daylight
02 Oct - 19:47:45 10° SSW 19:57:45 21° SSE 20:06:17 10° ESE visible
02 Oct - 21:52:15 10° SW 22:05:42 62° SE 22:14:54 10° ENE visible
03 Oct - 00:00:47 10° WSW 00:10:45 36° NW 00:17:42 10° NNE night (unlit)
03 Oct - 08:37:22 10° NNE 08:39:47 13° NE 08:42:31 10° ENE daylight
03 Oct - 10:37:09 10° NW 10:43:19 85° SW 10:52:53 10° SE daylight
03 Oct - 12:43:11 10° WSW 12:49:27 22° SSW 12:57:39 10° SSE daylight
03 Oct - 19:15:02 10° SSW 19:24:28 19° SSE 19:32:51 10° ESE visible
03 Oct - 21:19:06 10° SW 21:32:50 55° SE 21:42:35 10° ENE visible
03 Oct - 23:27:03 10° WSW 23:38:19 44° NW 23:46:02 10° NNE visible
04 Oct - 10:05:17 10° NW 10:11:03 80° NE 10:19:51 10° SE daylight
04 Oct - 12:10:38 10° W 12:16:41 24° SSW 12:24:49 10° SSE daylight
04 Oct - 18:42:27 10° S 18:51:07 17° SSE 18:59:06 10° ESE visible
04 Oct - 20:46:01 10° SSW 20:59:53 50° SE 21:10:08 10° ENE visible
04 Oct - 22:53:25 10° WSW 23:05:49 53° NW 23:14:15 10° NNE visible
05 Oct - 09:33:30 10° NW 09:38:52 65° NE 09:46:49 10° SE daylight
05 Oct - 11:38:12 10° W 11:44:01 26° SSW 11:52:01 10° SSE daylight
05 Oct - 18:10:03 10° S 18:17:43 15° SSE 18:25:01 10° ESE visible
05 Oct - 20:13:00 10° SSW 20:26:50 45° SE 20:37:32 10° ENE visible
05 Oct - 22:19:51 10° WSW 22:33:12 63° NW 22:42:20 10° NE visible
06 Oct - 00:34:22 10° WNW 00:37:56 12° NW 00:41:05 10° NNW night (unlit)
06 Oct - 09:01:46 10° NNW 09:06:45 50° NE 09:13:48 10° ESE daylight
06 Oct - 11:05:52 10° W 11:11:27 29° SSW 11:19:15 10° SSE daylight
06 Oct - 17:37:56 10° S 17:44:15 13° SSE 17:50:28 10° SE daylight
06 Oct - 19:40:04 10° SSW 19:53:43 40° SE 20:04:47 10° ENE visible
06 Oct - 21:46:23 10° SW 22:00:30 72° NW 22:10:20 10° NE visible
06 Oct - 23:59:03 10° W 00:05:25 17° NW 00:10:39 10° N night (unlit)
07 Oct - 08:30:08 10° NNW 08:34:41 38° NE 08:40:47 10° ESE daylight
07 Oct - 10:33:37 10° W 10:38:58 32° SSW 10:46:32 10° SSE daylight
07 Oct - 17:06:21 10° S 17:10:46 12° SSE 17:15:12 10° SE daylight
07 Oct - 19:07:13 10° SSW 19:20:32 36° SE 19:31:51 10° E visible
07 Oct - 21:13:00 10° SW 21:27:41 82° NW 21:38:12 10° NE visible
07 Oct - 23:24:25 10° W 23:32:53 22° NW 23:39:31 10° N visible
08 Oct - 07:58:34 10° NNW 08:02:39 28° NE 08:07:45 10° ESE daylight
08 Oct - 10:01:26 10° WNW 10:06:35 37° SW 10:13:51 10° SSE daylight
08 Oct - 18:34:29 10° SSW 18:47:18 33° SE 18:58:44 10° E visible
08 Oct - 20:39:43 10° SW 20:54:46 89° SE 21:05:57 10° NE visible
08 Oct - 22:50:06 10° W 23:00:17 27° NW 23:08:04 10° N visible
09 Oct - 07:27:08 10° N 07:30:36 21° NE 07:34:39 10° E daylight
09 Oct - 09:29:20 10° WNW 09:34:16 42° SW 09:41:14 10° SSE daylight
09 Oct - 18:01:52 10° SSW 18:14:03 29° SE 18:25:23 10° E visible
09 Oct - 20:06:32 10° SW 20:21:46 80° SE 20:33:36 10° NE visible
09 Oct - 22:15:59 10° WSW 22:27:37 33° NW 22:36:25 10° NNE visible
